Regional Weather Roundup
Issued by NWS Newport/Morehead, NC

Current Version | Previous Version | Graphics & Text | Print | Product List | Glossary Off
Versions: 1 2 3 4 5 6 7 8 9 10 11 12 13 14 15 16 17 18 19 20 21 22 23 24 25 26 27 28 29 30 31 32 33 34 35 36 37 38 39 40 41 42 43 44 45 46 47 48 49 50

382
ASUS42 KMHX 211924
RWRMHX
WEATHER ROUNDUP FOR EASTERN NORTH CAROLINA
NATIONAL WEATHER SERVICE NEWPORT/MOREHEAD CITY NC
300 PM EDT THU MAY 21 2015

NOTE: "FAIR" INDICATES FEW OR NO CLOUDS BELOW 12,000 FEET
WITH NO SIGNIFICANT WEATHER AND/OR OBSTRUCTIONS TO VISIBILITY

NCZ015>017-031-032-045>047-102-103-212000-
NORTH COAST

CITY           SKY/WX    TMP DP  RH WIND       PRES   REMARKS
EDENTON        MOSUNNY   81  70  70 SE14G22   29.75F
ELIZABETH CITY PTSUNNY   77  69  76 SE14      29.77F
KITTY HAWK     CLOUDY    76  66  71 SE8G21    29.80F
MANTEO         CLOUDY    75  68  78 SE14G22   29.81F

$$

NCZ045>047-081-094-103-104-212000-
CENTRAL COAST

CITY           SKY/WX    TMP DP  RH WIND       PRES   REMARKS
FRISCO         PTSUNNY   79  69  71 SE15G22   29.82F
SWANQUARTER      N/A     79 N/A N/A SE13G24   29.74F

$$

NCZ095-097-098-100-101-212000-
SOUTHERN COAST

CITY           SKY/WX    TMP DP  RH WIND       PRES   REMARKS
BEAUFORT       MOSUNNY   81  75  82 S10       29.80F
CEDAR ISLAND     N/A     79 N/A N/A SE14G21   29.82F
JACKSONVILLE   MOSUNNY   84  70  62 S14       29.76F
PINEY ISLAND   MOCLDY   N/A N/A N/A S12G22    29.80F
WILMINGTON     MOSUNNY   85  72  65 S14       29.77F


$$

NCZ011>013-027>030-043-044-078>080-089-090>093-098-212000-
COASTAL PLAIN

CITY           SKY/WX    TMP DP  RH WIND       PRES   REMARKS
AHOSKIE        HVY RAIN  65  62  91 NW8G23    29.80R
CLINTON        PTSUNNY   85  72  65 SW5       29.74F
ELIZABETHTOWN  LGT RAIN  86  69  57 SW10G16   29.75S
GOLDSBORO      LGT RAIN  79  73  82 S9G20     29.73S
GREENVILLE     MOSUNNY   84  70  61 S12       29.75F
HAVELOCK       MOSUNNY   83  71  67 S13G18    29.78F
KENANSVILLE    PTSUNNY   84  71  64 SE5       29.75F
KINSTON        RAIN      82  72  69 S9        29.73F
NEW BERN       PTSUNNY   86  69  56 S12G22    29.77F
RICHLANDS      MOSUNNY   88  70  55 S16G22    29.73F
ROCKY MOUNT    LGT RAIN  71  68  90 NW14G20   29.79S
WASHINGTON     MOSUNNY   82  71  68 SE12G20   29.72F
WHITEVILLE     PTSUNNY   85  73  66 S13       29.75S

$$

AMZ130-135-150-152-154-156-158-170-250-252-270-ANZ085-086-088-633-658-670-212000-
MARINE OBSERVATIONS

STATION/POSITION TIME  TEMP    WIND        PRES    WAVE   SWELL
                       AIR SEA DIR/SP/G            HT/PER HT/PER
                 (UTC) (F)     (DEG/KT/KT) (MB)    (FT/S) (FT/S)
CHESAPEAKE LIGHT 1900   65     130/ 24/ 26 1009.3
64 E VA BEACH    1850   66 62  130/ 14/ 16 1010.2    3/ 5   2/ 9
DUCK             1900   70 68  140/ 15/ 17 1008.1
2 E DUCK         1811      68                N/A     4/ 4
OREGON INLET     1900   75 69  140/ 13/ 20 1009.6
13E OREGON INLT  1900      66                N/A     4/ 4
HATTERAS CG      1900   76 72  150/ 14/ 18 1009.2
DIAMOND BUOY     1850   76 77  150/ 17/ 19 1009.7    4/ 5   2/ 9
CAPE LOOKOUT     1900   75     160/ 10/ 11 1008.8
BEAUFORT LAB     1900   77 74  180/ 10/ 11 1008.1
27 SE WRIGHTSVLE 1900   76 79  210/ 14/ 16   N/A
5 SE WRIGHTSVLE  1808   78 77  200/ 12/ 16 1009.1
225 S CAPE HAT   1850   75 76  210/ 12/ 14 1013.7    3/ 5   2/ 8
41 SE CHARLESTON 1850   76 76  230/ 17/ 19 1009.6    3/ 5   2/ 8

$$



USA.gov is the U.S. government's official web portal to all federal, state and local government web resources and services.